Location: Albany
(35.0000°S, 118.0000°E)
Time: 06:31:26
(UTC-04:00)

Amateur Radio Satellites - All Passes

Search period start: 25 April 2017 06:01
Search period end: 26 April 2017 06:01
Location: Albany, 35.0000°S, 118.0000°E

Satellite Date Start Highest point End Downlink Frequencies (MHz)
Time Altitude Azimuth
XW-2D 25 Apr 06:16:04 06:19:57 86° 84° (E) 06:23:45 145.860 - 145.880
HO-68 25 Apr 06:19:50 06:24:22 18° 87° (E) 06:28:51 435.675
XW-2B 25 Apr 06:22:58 06:26:51 80° 258° (WSW) 06:30:37 145.730 - 145.750
CUTE-I 25 Apr 06:25:18 06:30:46 76° 77° (ENE) 06:36:09 437.470
LilacSat-2 25 Apr 06:31:48 06:35:37 56° 256° (WSW) 06:39:20 437.200
SO-50 25 Apr 06:33:41 06:38:15 56° 238° (WSW) 06:42:55 436.795
M-CUBED/EXP-1 PRIME 25 Apr 06:34:42 06:38:06 83° 107° (ESE) 06:41:26 437.505
XW-2C 25 Apr 06:34:52 06:38:39 53° 255° (WSW) 06:42:21 145.795 - 145.815
CUTE 1.7 + AOD 2 25 Apr 06:36:46 06:39:16 15° 87° (E) 06:41:46 437.475
KAITUO 1B 25 Apr 06:37:10 06:40:57 64° 256° (WSW) 06:44:39 145.475/437.950
RS-15 25 Apr 06:46:41 06:57:44 68° 67° (ENE) 07:08:30 29.354- 29.394
SEEDS 25 Apr 07:00:00 07:02:55 18° 86° (E) 07:05:48 437.485
XW-2F 25 Apr 07:02:19 07:05:28 25° 251° (WSW) 07:08:35 145.980 - 146.000
Tancredo 1 25 Apr 07:07:41 07:10:14 22° 50° (NE) 07:12:47 437.200
UWE-3 25 Apr 07:14:20 07:16:08 12° 89° (E) 07:17:55 435.000/436.395/437.385
ISS 25 Apr 07:15:14 07:17:50 21° 51° (NE) 07:20:27 437.550
NUDT-PHONESAT 25 Apr 07:19:52 07:22:32 18° 250° (WSW) 07:25:09 437.300
CUBEBUG 2 25 Apr 07:21:38 07:25:40 26° 85° (E) 07:29:34 437.445
STRAND 1 25 Apr 07:38:52 07:43:19 29° 277° (W) 07:47:49 437.568
XW-2A 25 Apr 07:57:36 08:00:52 37° 254° (WSW) 08:04:05 145.665 - 145.685
HO-68 25 Apr 08:05:25 08:12:37 73° 252° (WSW) 08:19:44 435.675
CUTE-I 25 Apr 08:07:50 08:10:04 13° 242° (WSW) 08:12:18 437.470
CUTE 1.7 + AOD 2 25 Apr 08:11:17 08:15:12 36° 253° (WSW) 08:19:04 437.475
ZACube-1 25 Apr 08:12:04 08:16:07 31° 84° (E) 08:20:04 437.345
AAUSAT CUBESAT 2 25 Apr 08:12:22 08:16:30 64° 80° (E) 08:20:36 437.432
AO-73 25 Apr 08:19:57 08:24:06 34° 83° (E) 08:28:07 145.935
SEEDS 25 Apr 08:34:55 08:38:36 30° 252° (WSW) 08:42:16 437.485
Oscar 11 25 Apr 08:37:40 08:41:51 43° 81° (E) 08:45:58 .
Tancredo 1 25 Apr 08:43:17 08:46:03 27° 215° (SW) 08:48:51 437.200
UWE-3 25 Apr 08:48:17 08:52:54 55° 254° (WSW) 08:57:21 435.000/436.395/437.385
TIGRISAT 25 Apr 08:50:06 08:54:00 29° 110° (ESE) 08:58:02 435.000
ISS 25 Apr 08:51:09 08:54:10 31° 216° (SW) 08:57:13 437.550
CUBEBUG 2 25 Apr 08:58:06 09:02:09 27° 250° (WSW) 09:06:05 437.445
RS-15 25 Apr 09:01:06 09:10:47 34° 225° (SW) 09:20:24 29.354- 29.394
PRISM 25 Apr 09:09:57 09:14:04 88° 278° (W) 09:18:13 437.425
UNISAT 6 25 Apr 09:10:11 09:14:36 53° 106° (ESE) 09:19:10 437.425
DELFI C3 25 Apr 09:12:44 09:16:12 28° 83° (E) 09:19:39 145.870
FO-29 25 Apr 09:18:42 09:24:55 57° 109° (ESE) 09:32:02 435.910
O/OREOS (USA 219) 25 Apr 09:27:39 09:31:43 34° 76° (ENE) 09:35:49 437.305
ZACube-1 25 Apr 09:48:43 09:52:09 21° 249° (WSW) 09:55:29 437.345
QB50P2 25 Apr 09:53:30 09:54:31 11° 115° (ESE) 09:55:32 145.880/145.840
HO-68 25 Apr 09:56:45 09:59:03 12° 235° (SW) 10:01:21 435.675
AO-73 25 Apr 09:56:50 10:00:01 19° 248° (WSW) 10:03:09 145.935
PCSat 25 Apr 10:05:54 10:08:24 13° 133° (SE) 10:10:54 145.827
Oscar 11 25 Apr 10:15:15 10:17:33 14° 247° (WSW) 10:19:50 .
NANOSAT C BR1 25 Apr 10:15:19 10:18:01 17° 113° (ESE) 10:20:44 145.865
OBJECT BX 25 Apr 10:19:06 10:22:41 45° 255° (WSW) 10:26:13 145.990 - 145.960
TIGRISAT 25 Apr 10:27:04 10:30:39 23° 274° (W) 10:34:19 435.000
EO-79 25 Apr 10:40:38 10:44:30 35° 108° (ESE) 10:48:27 145.935-145.965
DUCHIFAT 1 25 Apr 10:44:47 10:48:33 32° 108° (ESE) 10:52:23 145.980
DELFI C3 25 Apr 10:48:05 10:50:44 17° 249° (WSW) 10:53:22 145.870
UNISAT 6 25 Apr 10:49:47 10:51:37 12° 271° (W) 10:53:28 437.425
AIST 2D 25 Apr 10:52:11 10:55:47 78° 282° (WNW) 10:59:26 435.315
FO-29 25 Apr 11:05:40 11:10:27 22° 270° (W) 11:15:40 435.910
O/OREOS (USA 219) 25 Apr 11:07:57 11:11:11 19° 241° (WSW) 11:14:26 437.305
POLYITAN 1 25 Apr 11:18:55 11:23:11 77° 281° (W) 11:27:33 437.675
ESTCUBE 1 25 Apr 11:21:22 11:25:50 54° 80° (E) 11:30:14 437.505/2401.250
SPROUT 25 Apr 11:22:41 11:24:35 13° 88° (E) 11:26:28 437.525
RS-15 25 Apr 11:24:19 11:28:07 12° 191° (SSW) 11:31:56 29.354- 29.394
QB50P2 25 Apr 11:25:32 11:29:43 58° 281° (W) 11:34:00 145.880/145.840
LO-87 25 Apr 11:28:20 11:31:55 49° 255° (WSW) 11:35:28 145.935 - 145.965
VELOX 1 25 Apr 11:42:16 11:45:53 23° 84° (E) 11:49:28 145.980
PCSat 25 Apr 11:47:03 11:52:31 87° 294° (WNW) 11:57:56 145.827
NANOSAT C BR1 25 Apr 11:49:29 11:53:23 36° 278° (W) 11:57:22 145.865
BUGSAT 1 25 Apr 11:52:48 11:56:51 63° 105° (ESE) 12:01:01 437.445
Gurwin Techsat 1B 25 Apr 11:56:39 11:59:21 14° 117° (ESE) 12:02:03 435.225
Oscar 19 25 Apr 12:05:56 12:10:23 30° 111° (ESE) 12:14:52 437.125/150
UKube-1 25 Apr 12:11:38 12:13:05 11° 88° (E) 12:14:31 .
AO-85 25 Apr 12:12:36 12:17:25 83° 62° (ENE) 12:22:39 145.980
50 SAT 25 Apr 12:13:25 12:16:25 27° 83° (E) 12:19:25 437.505
EO-79 25 Apr 12:17:43 12:20:21 16° 274° (W) 12:23:01 145.935-145.965
DUCHIFAT 1 25 Apr 12:21:24 12:24:15 18° 274° (W) 12:27:09 145.980
DX 1 25 Apr 12:38:58 12:43:05 37° 81° (E) 12:47:10 434.975-435.025
SPROUT 25 Apr 12:56:30 13:00:42 46° 254° (WSW) 13:04:50 437.525
ESTCUBE 1 25 Apr 13:00:10 13:02:06 13° 245° (WSW) 13:04:01 437.505/2401.250
VELOX 1 25 Apr 13:18:29 13:22:14 27° 250° (WSW) 13:25:57 145.980
ITAMSAT 1 25 Apr 13:29:45 13:32:55 16° 116° (ESE) 13:36:05 435.822/435.867
Gurwin Techsat 1B 25 Apr 13:33:21 13:38:39 67° 282° (WNW) 13:44:01 435.225
Tancredo 1 25 Apr 13:37:04 13:37:43 10° 156° (SSE) 13:38:20 437.200
BEESAT 2 25 Apr 13:38:26 13:42:06 38° 66° (ENE) 13:45:47 435.950
RS-15 25 Apr 13:40:40 13:47:25 17° 152° (SSE) 13:54:14 29.354- 29.394
BEESAT 3 25 Apr 13:42:54 13:46:43 58° 240° (WSW) 13:50:33 437.485
UKube-1 25 Apr 13:45:06 13:49:22 51° 254° (WSW) 13:53:35 .
Oscar 19 25 Apr 13:45:11 13:49:36 28° 276° (W) 13:54:04 437.125/150
ISS 25 Apr 13:46:30 13:47:33 11° 156° (SSE) 13:48:36 437.550
50 SAT 25 Apr 13:47:17 13:49:05 14° 249° (WSW) 13:50:53 437.505
AO-85 25 Apr 13:55:57 13:58:38 14° 224° (SW) 14:01:22 145.980
BEESAT 25 Apr 14:03:37 14:06:43 17° 86° (E) 14:09:47 436.000
AO-7 25 Apr 14:08:55 14:16:51 49° 114° (ESE) 14:24:51 .
DX 1 25 Apr 14:16:05 14:18:55 17° 247° (WSW) 14:21:44 434.975-435.025
ITUPSAT 1 25 Apr 14:41:58 14:46:36 43° 81° (E) 14:51:09 437.325
YUBILEINY 25 Apr 15:02:07 15:10:53 61° 100° (E) 15:19:28 435.215
ITAMSAT 1 25 Apr 15:06:44 15:11:51 56° 281° (W) 15:17:03 435.822/435.867
SO-50 25 Apr 15:08:00 15:12:43 52° 123° (ESE) 15:17:22 436.795
Tancredo 1 25 Apr 15:10:57 15:14:09 69° 138° (SE) 15:17:17 437.200
BEESAT 2 25 Apr 15:17:33 15:20:00 16° 230° (SW) 15:22:27 435.950
ISS 25 Apr 15:21:13 15:24:34 67° 139° (SE) 15:27:53 437.550
BEESAT 25 Apr 15:40:04 15:44:38 42° 252° (WSW) 15:49:09 436.000
MOZHAYETS 4 25 Apr 15:46:08 15:50:48 75° 256° (WSW) 15:55:22
RS-15 25 Apr 15:51:56 16:02:50 58° 125° (SE) 16:14:07 29.354- 29.394
AO-7 25 Apr 16:02:23 16:09:42 33° 278° (W) 16:17:08 .
KKS-1 25 Apr 16:09:04 16:13:04 30° 83° (E) 16:17:01 437.445
ITUPSAT 1 25 Apr 16:20:51 16:24:02 18° 246° (WSW) 16:27:11 437.325
CUBESAT XI-V 25 Apr 16:33:16 16:37:51 56° 80° (E) 16:42:22 437.345
STARS 25 Apr 16:44:44 16:48:45 31° 82° (E) 16:52:43 437.465
SO-50 25 Apr 16:50:00 16:52:43 15° 288° (WNW) 16:55:24 436.795
XW-2D 25 Apr 16:54:14 16:57:27 25° 109° (ESE) 17:00:42 145.860 - 145.880
YUBILEINY 25 Apr 17:00:14 17:06:54 25° 262° (W) 17:13:31 435.215
XW-2B 25 Apr 17:00:56 17:04:19 29° 108° (ESE) 17:07:44 145.730 - 145.750
DOVE 4 25 Apr 17:03:32 17:07:35 53° 105° (ESE) 17:11:43 437.250
LilacSat-2 25 Apr 17:09:57 17:13:38 41° 106° (ESE) 17:17:22 437.200
XW-2C 25 Apr 17:12:26 17:16:06 41° 106° (ESE) 17:19:50 145.795 - 145.815
KAITUO 1B 25 Apr 17:13:43 17:17:11 33° 107° (ESE) 17:20:42 145.475/437.950
XW-2F 25 Apr 17:38:44 17:42:37 88° 282° (WNW) 17:46:32 145.980 - 146.000
CUTE-I 25 Apr 17:43:41 17:49:02 89° 103° (ESE) 17:54:29 437.470
JUGNU 25 Apr 17:44:48 17:48:23 16° 7° (N) 17:51:57 437.505
KKS-1 25 Apr 17:45:56 17:49:24 22° 248° (WSW) 17:52:50 437.445
NUDT-PHONESAT 25 Apr 17:54:24 17:58:11 67° 280° (W) 18:02:01 437.300
RS-15 25 Apr 18:04:57 18:14:38 37° 286° (WNW) 18:24:45 29.354- 29.394
NO-84 25 Apr 18:12:33 18:15:15 22° 58° (ENE) 18:18:10 435.350 FM
CUBESAT XI-V 25 Apr 18:12:38 18:14:41 13° 245° (WSW) 18:16:43 437.345
STRAND 1 25 Apr 18:15:30 18:17:31 12° 89° (E) 18:19:31 437.568
CUBEBUG 2 25 Apr 18:17:24 18:19:59 15° 114° (ESE) 18:22:36 437.445
STARS 25 Apr 18:21:32 18:24:51 20° 248° (WSW) 18:28:08 437.465
XW-2A 25 Apr 18:25:19 18:28:28 35° 106° (ESE) 18:31:43 145.665 - 145.685
XW-2D 25 Apr 18:28:48 18:31:34 19° 275° (W) 18:34:22 145.860 - 145.880
HO-68 25 Apr 18:29:44 18:36:49 62° 109° (ESE) 18:43:57 435.675
XW-2B 25 Apr 18:36:05 18:38:31 16° 274° (W) 18:40:58 145.730 - 145.750
LilacSat-2 25 Apr 18:46:46 18:48:05 11° 272° (W) 18:49:24 437.200
KAITUO 1B 25 Apr 18:49:19 18:51:16 13° 273° (W) 18:53:14 145.475/437.950
XW-2C 25 Apr 18:49:21 18:50:28 11° 272° (W) 18:51:35 145.795 - 145.815
AAUSAT CUBESAT 2 25 Apr 18:59:19 19:02:50 27° 109° (ESE) 19:06:22 437.432
CUTE 1.7 + AOD 2 25 Apr 18:59:40 19:03:59 82° 282° (WNW) 19:08:20 437.475
ZACube-1 25 Apr 19:05:06 19:08:06 18° 113° (ESE) 19:11:07 437.345
SRMSAT 25 Apr 19:06:23 19:08:23 12° 14° (NNE) 19:10:24 437.500
AO-73 25 Apr 19:12:32 19:15:42 19° 112° (ESE) 19:18:56 145.935
SEEDS 25 Apr 19:22:12 19:26:26 70° 282° (WNW) 19:30:44 437.485
Oscar 11 25 Apr 19:29:28 19:32:55 23° 110° (ESE) 19:36:24 .
JUGNU 25 Apr 19:32:53 19:36:40 18° 356° (N) 19:40:27 437.505
O/OREOS (USA 219) 25 Apr 19:40:34 19:44:51 39° 114° (ESE) 19:49:07 437.305
UWE-3 25 Apr 19:41:04 19:45:34 79° 103° (ESE) 19:50:15 435.000/436.395/437.385
M-CUBED/EXP-1 PRIME 25 Apr 19:49:19 19:53:11 78° 253° (WSW) 19:57:18 437.505
NO-84 25 Apr 19:49:24 19:52:40 31° 219° (SW) 19:56:14 435.350 FM
CUBEBUG 2 25 Apr 19:51:48 19:56:06 46° 278° (W) 20:00:36 437.445
STRAND 1 25 Apr 19:51:54 19:57:05 66° 254° (WSW) 20:02:11 437.568
DELFI C3 25 Apr 19:57:02 19:58:16 11° 114° (ESE) 19:59:28 145.870
HO-68 25 Apr 20:19:37 20:24:53 22° 274° (W) 20:30:13 435.675
AAUSAT CUBESAT 2 25 Apr 20:35:06 20:38:14 20° 275° (W) 20:41:22 437.432
FO-29 25 Apr 20:37:28 20:38:03 10° 95° (E) 20:38:37 435.910
ZACube-1 25 Apr 20:39:46 20:43:59 39° 278° (W) 20:48:19 437.345
AO-73 25 Apr 20:47:30 20:51:36 35° 277° (W) 20:55:51 145.935
AO-85 25 Apr 20:47:39 20:52:26 33° 127° (SE) 20:57:00 145.980
SRMSAT 25 Apr 20:52:59 20:56:48 18° 4° (N) 21:00:37 437.500
OBJECT BX 25 Apr 20:53:14 20:56:43 41° 106° (ESE) 21:00:17 145.990 - 145.960
PRISM 25 Apr 20:55:41 20:58:16 16° 86° (E) 21:00:49 437.425
Oscar 11 25 Apr 21:05:12 21:08:53 26° 276° (W) 21:12:37 .
UNISAT 6 25 Apr 21:06:36 21:09:23 15° 88° (E) 21:12:07 437.425
O/OREOS (USA 219) 25 Apr 21:21:05 21:23:53 16° 280° (W) 21:26:39 437.305
JUGNU 25 Apr 21:22:48 21:24:55 12° 347° (NNW) 21:27:01 437.505
DELFI C3 25 Apr 21:28:44 21:32:34 46° 279° (W) 21:36:26 145.870
LO-87 25 Apr 22:01:03 22:04:19 34° 106° (ESE) 22:07:38 145.935 - 145.965
BEESAT 3 25 Apr 22:02:55 22:06:09 25° 125° (SE) 22:09:20 437.485
FO-29 25 Apr 22:16:20 22:24:16 71° 79° (ENE) 22:31:35 435.910
ESTCUBE 1 25 Apr 22:17:34 22:21:38 33° 108° (ESE) 22:25:45 437.505/2401.250
TIGRISAT 25 Apr 22:20:40 22:25:26 83° 257° (WSW) 22:30:03 435.000
AO-85 25 Apr 22:28:18 22:32:49 29° 290° (WNW) 22:37:04 145.980
PRISM 25 Apr 22:29:52 22:33:36 33° 252° (WSW) 22:37:18 437.425
VELOX 1 25 Apr 22:37:23 22:39:48 15° 114° (ESE) 22:42:15 145.980
SRMSAT 25 Apr 22:41:34 22:45:15 17° 354° (N) 22:48:56 437.500
UNISAT 6 25 Apr 22:41:45 22:46:16 44° 253° (WSW) 22:50:40 437.425
POLYITAN 1 25 Apr 23:07:43 23:11:07 22° 85° (E) 23:14:29 437.675
QB50P2 25 Apr 23:13:57 23:17:44 28° 83° (E) 23:21:27 145.880/145.840
DX 1 25 Apr 23:31:42 23:35:03 22° 111° (ESE) 23:38:25 434.975-435.025
BEESAT 2 25 Apr 23:36:17 23:40:09 71° 297° (WNW) 23:44:00 435.950
NANOSAT C BR1 25 Apr 23:36:40 23:40:50 44° 81° (E) 23:44:55 145.865
LO-87 25 Apr 23:36:57 23:37:53 11° 272° (W) 23:38:49 145.935 - 145.965
BUGSAT 1 25 Apr 23:39:44 23:41:30 12° 88° (E) 23:43:14 437.445
BEESAT 3 25 Apr 23:40:40 23:43:32 20° 291° (WNW) 23:46:24 437.485
SPROUT 25 Apr 23:45:52 23:50:08 84° 101° (E) 23:54:30 437.525
AIST 2D 25 Apr 23:53:51 23:57:12 37° 254° (WSW) 00:00:29 435.315
ESTCUBE 1 25 Apr 23:55:13 23:58:28 19° 274° (W) 00:01:45 437.505/2401.250
FO-29 26 Apr 00:02:38 00:08:23 23° 241° (WSW) 00:13:55 435.910
EO-79 26 Apr 00:03:38 00:08:00 77° 256° (WSW) 00:12:17 145.935-145.965
DUCHIFAT 1 26 Apr 00:06:55 00:11:15 87° 255° (WSW) 00:15:32 145.980
VELOX 1 26 Apr 00:11:38 00:15:50 44° 279° (W) 00:20:05 145.980
50 SAT 26 Apr 00:15:00 00:18:26 61° 281° (W) 00:21:53 437.505
Oscar 19 26 Apr 00:22:21 00:24:39 13° 88° (E) 00:26:56 437.125/150
SRMSAT 26 Apr 00:33:12 00:33:39 10° 344° (NNW) 00:34:05 437.500
UKube-1 26 Apr 00:35:41 00:40:00 85° 105° (ESE) 00:44:23 .
POLYITAN 1 26 Apr 00:43:11 00:46:49 26° 250° (WSW) 00:50:25 437.675
PCSat 26 Apr 00:43:51 00:47:36 19° 75° (ENE) 00:51:22 145.827
QB50P2 26 Apr 00:50:03 00:53:18 21° 249° (WSW) 00:56:31 145.880/145.840
DX 1 26 Apr 01:07:20 01:11:02 27° 277° (W) 01:14:48 434.975-435.025
BEESAT 26 Apr 01:07:31 01:10:06 15° 115° (ESE) 01:12:41 436.000
BUGSAT 1 26 Apr 01:12:54 01:17:03 46° 254° (WSW) 01:21:09 437.445
NANOSAT C BR1 26 Apr 01:13:52 01:16:06 14° 246° (WSW) 01:18:19 145.865
ITUPSAT 1 26 Apr 01:45:22 01:49:44 35° 109° (ESE) 01:54:10 437.325
Gurwin Techsat 1B 26 Apr 01:52:55 01:58:18 65° 78° (ENE) 02:03:35 435.225
Oscar 19 26 Apr 01:59:12 02:04:19 62° 254° (WSW) 02:09:23 437.125/150
YUBILEINY 26 Apr 02:08:59 02:11:44 12° 104° (ESE) 02:14:29 435.215
AO-7 26 Apr 02:16:07 02:21:21 18° 87° (E) 02:26:32 .
NO-84 26 Apr 02:25:16 02:29:31 42° 138° (SE) 02:33:46 435.350 FM
PCSat 26 Apr 02:25:20 02:30:34 48° 240° (WSW) 02:35:50 145.827
BEESAT 26 Apr 02:42:39 02:47:21 54° 281° (W) 02:52:07 436.000
MOZHAYETS 4 26 Apr 02:44:07 02:48:46 70° 104° (ESE) 02:53:28
KKS-1 26 Apr 03:04:30 03:07:38 19° 112° (ESE) 03:10:50 437.445
ITAMSAT 1 26 Apr 03:22:48 03:28:06 69° 78° (ENE) 03:33:19 435.822/435.867
ITUPSAT 1 26 Apr 03:24:00 03:27:36 21° 275° (W) 03:31:14 437.325
CUBESAT XI-V 26 Apr 03:33:08 03:37:25 37° 108° (ESE) 03:41:46 437.345
Gurwin Techsat 1B 26 Apr 03:34:47 03:37:37 15° 243° (WSW) 03:40:25 435.225
STARS 26 Apr 03:38:42 03:41:50 19° 112° (ESE) 03:45:00 437.465
YUBILEINY 26 Apr 03:58:07 04:06:56 78° 87° (E) 04:15:51 435.215
NO-84 26 Apr 04:03:24 04:06:59 24° 303° (WNW) 04:10:31 435.350 FM
AO-7 26 Apr 04:06:24 04:14:51 82° 251° (WSW) 04:23:11 .
KKS-1 26 Apr 04:39:54 04:43:55 33° 278° (W) 04:47:59 437.445
ITAMSAT 1 26 Apr 05:04:26 05:06:54 13° 242° (WSW) 05:09:21 435.822/435.867
DOVE 4 26 Apr 05:05:14 05:09:02 22° 85° (E) 05:12:56 437.250
CUBESAT XI-V 26 Apr 05:11:39 05:14:52 18° 274° (W) 05:18:07 437.345
STARS 26 Apr 05:13:57 05:17:54 32° 278° (W) 05:21:54 437.465
XW-2F 26 Apr 05:16:16 05:17:44 12° 88° (E) 05:19:10 145.980 - 146.000
SO-50 26 Apr 05:19:05 05:23:17 35° 67° (ENE) 05:27:35 436.795
STRAND 1 26 Apr 05:28:15 05:30:47 14° 117° (ESE) 05:33:21 437.568
NUDT-PHONESAT 26 Apr 05:29:33 05:31:40 14° 87° (E) 05:33:44 437.300
